IW0DNR Weather Reports


time (UTC)temp
C
wind
direction
speed
KPH
gust
KPH
rain 1hr
cm
rain 24hr
cm
rain mn
cm
humidity
%
barometer
mb
20260506180100 17 360 0.0 4.8 0.00 0.00 0.00 72 1012.9
20260506174557 17 360 0.0 3.2 0.00 0.00 0.00 73 1012.7
20260506173059 17 360 0.0 6.4 0.00 0.00 0.00 74 1012.7
20260506171559 17 200 1.6 6.4 0.00 0.00 0.00 73 1012.7
20260506170059 17 205 1.6 6.4 0.00 0.00 0.00 72 1012.8
20260506164601 17 360 0.0 6.4 0.00 0.00 0.00 72 1012.7
20260506163104 17 360 0.0 4.8 0.00 0.00 0.00 72 1012.6
20260506161605 17 215 1.6 8.0 0.00 0.00 0.00 72 1012.7
20260506160054 18 211 1.6 4.8 0.00 0.00 0.00 71 1012.8
20260506154610 18 360 3.2 8.0 0.00 0.00 0.00 69 1012.8
20260506153052 18 236 3.2 8.0 0.00 0.00 0.00 70 1013.0
20260506151551 18 360 6.4 12.9 0.00 0.00 0.00 69 1012.9
20260506150053 18 360 3.2 12.9 0.00 0.00 0.00 70 1013.0
20260506144600 18 297 4.8 14.5 0.00 0.00 0.00 68 1013.0
20260506143051 19 360 3.2 19.3 0.00 0.00 0.00 65 1013.0
20260506141551 20 360 4.8 16.1 0.00 0.00 0.00 67 1013.0
20260506140059 19 246 9.7 16.1 0.00 0.00 0.00 67 1012.9
20260506134549 20 235 4.8 14.5 0.00 0.00 0.00 66 1012.8
20260506133053 20 267 6.4 14.5 0.00 0.00 0.00 63 1012.9
20260506131548 20 136 6.4 12.9 0.00 0.00 0.00 62 1012.7
20260506130049 21 198 6.4 12.9 0.00 0.00 0.00 60 1012.8
20260506124547 21 219 6.4 14.5 0.00 0.00 0.00 56 1012.7
20260506123044 21 236 6.4 11.3 0.00 0.00 0.00 58 1012.6
20260506121542 20 171 4.8 9.7 0.00 0.00 0.00 61 1012.7
20260506120045 20 204 6.4 12.9 0.00 0.00 0.00 59 1013.0
20260506114541 20 208 6.4 16.1 0.00 0.00 0.00 59 1013.2
20260506113046 20 235 4.8 11.3 0.00 0.00 0.00 59 1013.1
20260506111537 20 196 4.8 9.7 0.00 0.00 0.00 59 1013.1
20260506110037 19 250 3.2 11.3 0.00 0.00 0.00 60 1013.1
20260506104545 19 229 4.8 12.9 0.00 0.00 0.00 59 1013.1
20260506103037 20 209 3.2 8.0 0.00 0.00 0.00 58 1013.1
20260506101544 19 187 3.2 9.7 0.00 0.00 0.00 59 1013.1
20260506100033 19 246 3.2 12.9 0.00 0.00 0.00 59 1013.4
20260506094529 18 199 3.2 8.0 0.00 0.03 0.00 58 1013.6
20260506093024 18 179 1.6 8.0 0.00 0.03 0.00 59 1013.6
20260506091523 18 157 1.6 4.8 0.00 0.03 0.00 61 1013.4
20260506090021 17 147 0.0 4.8 0.00 0.03 0.00 61 1013.3
20260506084532 17 145 3.2 6.4 0.00 0.03 0.00 59 1013.1
20260506083018 17 42 0.0 3.2 0.00 0.03 0.00 62 1012.9
20260506081517 16 43 1.6 4.8 0.00 0.03 0.00 66 1012.8
20260506073008 16 38 1.6 4.8 0.00 0.03 0.00 69 1013.4
20260506071508 15 245 0.0 4.8 0.00 0.03 0.00 71 1013.6
20260506061506 15 26 0.0 1.6 0.00 0.03 0.00 69 1013.7
20260506044502 15 28 0.0 0.0 0.00 0.03 0.00 72 1013.4
20260506043002 15 25 0.0 0.0 0.00 0.03 0.00 72 1013.3
20260506041500 15 28 0.0 0.0 0.00 0.03 0.00 71 1013.1
20260506040001 15 26 0.0 1.6 0.00 0.03 0.00 70 1013.0
20260506034600 15 27 0.0 1.6 0.00 0.05 0.00 70 1013.0
20260506033059 15 24 0.0 0.0 0.00 0.05 0.00 70 1013.1
20260506031559 15 25 0.0 1.6 0.00 0.05 0.00 69 1013.1
20260506030100 15 22 0.0 1.6 0.00 0.05 0.00 68 1013.1
20260506024601 15 26 0.0 3.2 0.00 0.05 0.00 66 1013.0
20260506023100 15 27 0.0 1.6 0.00 0.05 0.00 65 1013.2
20260506021606 15 22 0.0 1.6 0.00 0.05 0.00 64 1013.4
20260506020054 16 25 0.0 0.0 0.00 0.05 0.00 62 1013.4
20260506014553 16 26 0.0 1.6 0.00 0.05 0.00 61 1013.4
20260506013057 16 360 1.6 6.4 0.00 0.05 0.00 61 1013.3
20260506011551 16 22 1.6 6.4 0.00 0.05 0.00 60 1013.3
20260506010057 15 14 0.0 4.8 0.00 0.05 0.00 63 1013.6
20260506004549 15 360 0.0 0.0 0.00 0.05 0.00 65 1013.6
20260506003044 15 360 0.0 1.6 0.00 0.05 0.00 66 1013.8
20260506001546 15 360 0.0 0.0 0.00 0.05 0.00 68 1013.9
20260506000039 15 225 0.0 0.0 0.00 0.05 0.00 69 1014.0
20260505234559 15 360 0.0 0.0 0.00 0.05 0.00 72 1014.1
20260505233040 15 225 0.0 3.2 0.00 0.05 0.00 74 1014.1
20260505231535 15 225 0.0 0.0 0.00 0.05 0.00 73 1014.2
20260505230032 15 225 0.0 0.0 0.00 0.05 0.00 73 1014.3
20260505224532 15 360 0.0 0.0 0.00 0.05 0.00 72 1014.5
20260505223023 15 360 0.0 0.0 0.00 0.05 0.00 72 1014.7
20260505221522 15 360 0.0 0.0 0.00 0.05 0.00 71 1014.8
20260505220016 15 360 0.0 1.6 0.00 0.05 0.00 71 1014.8
20260505214525 15 225 0.0 0.0 0.00 0.05 0.05 71 1015.1
20260505213015 15 225 0.0 0.0 0.00 0.05 0.05 70 1015.1
20260505211515 15 360 0.0 0.0 0.00 0.05 0.05 70 1015.2
20260505210014 15 360 0.0 3.2 0.00 0.05 0.05 71 1015.5
20260505204516 15 225 0.0 0.0 0.00 0.05 0.05 70 1015.5
20260505203022 15 225 0.0 0.0 0.00 0.05 0.05 69 1015.5
20260505201522 15 360 0.0 0.0 0.00 0.05 0.05 69 1015.6
20260505200013 15 360 0.0 1.6 0.00 0.05 0.05 69 1015.5
20260505194514 15 360 0.0 1.6 0.00 0.05 0.05 69 1015.6
20260505193012 15 360 0.0 1.6 0.00 0.05 0.05 68 1015.4
20260505191511 15 360 0.0 1.6 0.00 0.05 0.05 67 1015.2
20260505190014 15 360 0.0 1.6 0.00 0.05 0.05 66 1015.0
20260505184511 15 225 0.0 1.6 0.00 0.05 0.05 65 1014.9
20260505183015 15 360 0.0 1.6 0.00 0.05 0.05 65 1014.8
20260505181509 16 360 0.0 3.2 0.00 0.05 0.05 67 1014.8